STARLINK-32734, 62476

Orbit data source: Space-Track

STARLINK-32734, 62476 is a payload satellite owned by SpaceX/Seattle (US) in LEO that was launched on Tue, 31 Dec 2024 UTC via an FALCON 9 launch vehicle from the Air Force Eastern Test Range (AFETR). Payload-class satellites include a variety of spacecraft equipped with specific instruments for various scientific and technological missions. These include communications satellites like Starlink; space stations such as the ISS; scientific satellites like the Hubble; Earth observation satellites from companies like Planet Labs, Umbra, and HawkEye 360; GPS; miniature CubeSats for education and research; and military/defense satellites.

Loading next visibility...
Identifier
62476, 2024-254Q
Orbit
LEO
Country
Flag of USUS
Related business
Manufacturer
SpaceX/Seattle
Mission
Operational Commercial Communications
Bus & Motor
STARLINK V2M, Unknown motor
Mass
730 kg wet, ~700 kg dry
Launch date (UTC)
2024-12-31 (2 years ago)
Launch vehicle
FALCON 9
Launch site
Air Force Eastern Test Range (AFETR)
Object type
Payload
Rocket body
Debris
Shape & HBR
Box + 2 Pan, 17.7 m
Radar Cross Section
33.884 m², Large (>1 m²)

Expand to show TLE details & history
Last TLE update: 10 hours ago

TLE from 10 hours ago
0 STARLINK-32734
1 62476U 24254Q   26258.06420770  .00015451  00000-0  56972-3 0  9999
2 62476  43.0054  27.0299 0001185 271.5848  88.4868 15.27585197 96616
Epoch: 2026-09-15T01:32Z
TLE epoch observation values (Epoch: 2026-09-15T01:32:27.545Z)
Latitude
-0.00001°
Longitude
9.8796°
Altitude
482.788 km
Speed
7.626 km/s
True Right ascension
01h 48m 07s
True Declination
0° 00' 00"
Sunlit
Object was in full shadow at epoch
Visualization orbit readout
Latitude
Unknown
Longitude
Unknown
Altitude
Unknown
Speed
Unknown
Apparent Right ascension
Unknown
Apparent Declination
Unknown
Sunlit
N/A
Visualization observer readout
Local Sidereal Time
03:44:55
Azimuth
Unknown
Elevation
Unknown
Doppler factor
Unknown
Orbital elements
Apogee altitude
485.791 km
Perigee altitude
484.165 km
Semi-major axis
6,863.115 km
Eccentricity
0.00012
Inclination
43.0054°
RAAN
27.0299°
Arg. of periapsis
271.5848°
True anomaly
88.50037°
Mean anomaly
88.4868°
Eccentric anomaly
88.49359°
Mean motion
3.81734 °/min
Orbital period
94.31 mins
BSTAR
0.00056972
Loading maneuver chart data...
Computing Atmospheric mass density...
Loading historical data...
Loading historical data...
Loading historical data...
Loading historical data...
Loading historical data...
Loading historical data...
Loading historical data...

Documentation

Showing up to 5 results
|